Regional Weather Roundup
Issued by NWS New Orleans/Baton Rouge, LA

Home | Current Version | Previous Version | Text Only | Print | Product List | Glossary On
Versions: 1 2 3 4 5 6 7 8 9 10 11 12 13 14 15 16 17 18 19 20 21 22 23 24 25 26 27 28 29 30 31 32 33 34 35 36 37 38 39 40 41 42 43 44 45 46 47 48 49 50
000
ASUS44 KLIX 220813
RWRLIX
NEW ORLEANS REGIONAL WEATHER ROUNDUP
NATIONAL WEATHER SERVICE NEW ORLEANS LA
300 AM CDT SUN OCT 22 2017

NOTE: "FAIR" INDICATES FEW OR NO CLOUDS BELOW 12,000 FEET WITH NO
      SIGNIFICANT WEATHER AND/OR OBSTRUCTIONS TO VISIBILITY.
      SKY/WX - SKY CONDITION AND SIGNIFICANT WEATHER.
      TMP - AIR TEMPERATURE.     DP    - DEWPOINT TEMPERATURE.
      RH  - RELATIVE HUMIDITY.   PRES  - PRESSURE.
      HI  - HEAT INDEX.          WCI   - WIND CHILL INDEX.

*  THESE STATIONS ARE NOT NWS OR FAA STATIONS AND ARE NOT UNDER
   NWS QUALITY CONTROL.

LAZ038-040-048-061>063-065>067-069-220900-
SOUTHEAST LOUISIANA

CITY           SKY/WX    TMP DP  RH WIND       PRES   REMARKS
N.O. INTL ARPT CLOUDY    77  75  93 E12       30.01F
N.O. LAKEFRONT CLOUDY   N/A N/A N/A MISG      30.02F
N.O. DOWNTOWN* CLOUDY    78  73  84 VRB6      30.02F
RESERVE*       CLOUDY    77  73  86 E5        30.02R
SLIDELL        MOCLDY    77  70  79 VRB5      30.02F
BATON ROUGE    LGT RAIN  75  73  93 S7        30.00F
BOOTHVILLE     CLOUDY    82  75  79 SE10      30.01F
BELLE CHASSE   NOT AVBL
BOGALUSA*        N/A     72  68  88 CALM      30.05F
GALLIANO*      TSTM      77  74  88 CALM      30.00F
NEW ROADS*     TSTM      69  68  97 NE12      29.97F
GONZALES*        N/A     74  72  92 CALM      30.01R THUNDER
HAMMOND*       CLOUDY    75  70  83 SE12      30.01F
HOUMA*         CLOUDY   N/A N/A N/A SE10      30.00F THUNDER
PORT FOURCHON* CLOUDY    81  75  83 SE16G24   29.99F

$$

MSZ070-080>082-220900-
SOUTHERN MISSISSIPPI

CITY           SKY/WX    TMP DP  RH WIND       PRES   REMARKS
MCCOMB         CLOUDY    73  70  90 E6        30.07S THUNDER
GULFPORT       CLOUDY    77  72  84 SE13      30.03F
BILOXI         MOCLDY    77  70  79 SE14      30.03F
PASCAGOULA     CLEAR     70  66  87 E3        30.05F

$$

COASTAL OBSERVATIONS
LAKE AND NEARSHORE STATIONS

STATION/POSITION TIME  TEMP    WIND        PRES    WAVE
                       AIR SEA DIR/SP/G            HT/PER
                 (UTC) (F)     (DEG/KT/KT) (MB)    (FT/S)
PASCAGOULA       0748   77     120/ 12/ 18 1016.8
WAVELAND YACHT   0736   77 75  120/ 11/ 14 1017.2
GRAND ISLE       0748   80 78  140/ 11/ 16 1016.0
SOUTHWEST PASS   0748          120/ 17/ 20   N/A
NEW CANAL        0748   77 76  100/  2/  4 1016.2
SHELL BEACH      0736   78 78  120/ 14/ 17 1016.3

OFFSHORE STATIONS

STATION/POSITION TIME  TEMP    WIND        PRES    WAVE
                       AIR SEA DIR/SP/G            HT/PER
                 (UTC) (F)     (DEG/KT/KT) (MB)    (FT/S)
64 S DAUPHIN ISL 0750   81 81  110/ 17/ 23 1016.8    7/ 8

$$




USA.gov is the U.S. government's official web portal to all federal, state and local government web resources and services.